FW3814 Weather Reports


time (UTC)temp
C
wind
direction
speed
KPH
gust
KPH
rain 1hr
cm
rain 24hr
cm
rain mn
cm
humidity
%
barometer
mb
20260831005503 21 8 0.0 1.6 0.00 0.00 0.00 70 1014.5
20260831005003 22 8 1.6 1.6 0.00 0.00 0.00 70 1014.4
20260831004524 22 4 0.0 1.6 0.00 0.00 0.00 69 1014.4
20260831004003 22 0 0.0 0.0 0.00 0.00 0.00 68 1014.3
20260831003504 22 0 0.0 0.0 0.00 0.00 0.00 68 1014.3
20260831003003 22 0 0.0 0.0 0.00 0.00 0.00 67 1014.3
20260831002503 22 22 0.0 1.6 0.00 0.00 0.00 67 1014.4
20260831002004 22 22 0.0 1.6 0.00 0.00 0.00 64 1014.4
20260831001503 22 22 0.0 1.6 0.00 0.00 0.00 64 1014.5
20260831001003 22 0 0.0 0.0 0.00 0.00 0.00 64 1014.6
20260831000503 22 360 0.0 1.6 0.00 0.00 0.00 63 1014.5
20260831000003 22 360 0.0 1.6 0.00 0.00 0.00 63 1014.8
20260830235524 22 360 0.0 1.6 0.00 0.00 0.00 64 1014.5
20260830235003 22 9 0.0 1.6 0.00 0.00 0.00 67 1014.7
20260830234503 22 6 0.0 1.6 0.00 0.00 0.00 68 1014.8
20260830234024 22 360 0.0 1.6 0.00 0.00 0.00 67 1014.8
20260830233503 22 0 0.0 0.0 0.00 0.00 0.00 63 1014.7
20260830233003 22 0 0.0 0.0 0.00 0.00 0.00 63 1014.8
20260830232503 22 0 0.0 0.0 0.00 0.00 0.00 63 1014.7
20260830232003 22 11 0.0 1.6 0.00 0.00 0.00 63 1014.8
20260830231503 22 9 0.0 1.6 0.00 0.00 0.00 63 1014.7
20260830231003 22 11 0.0 1.6 0.00 0.00 0.00 63 1014.6
20260830230503 22 11 0.0 1.6 0.00 0.00 0.00 63 1014.7
20260830230024 22 360 0.0 1.6 0.00 0.00 0.00 63 1014.7
20260830225503 22 11 0.0 1.6 0.00 0.00 0.00 63 1014.9
20260830225024 22 5 0.0 1.6 0.00 0.00 0.00 62 1014.8
20260830224503 22 360 0.0 1.6 0.00 0.00 0.00 62 1014.9
20260830224003 22 360 0.0 1.6 0.00 0.00 0.00 62 1015.0
20260830223524 22 4 0.0 1.6 0.00 0.00 0.00 62 1015.0
20260830223003 22 7 0.0 1.6 0.00 0.00 0.00 62 1014.9
20260830222524 22 11 0.0 1.6 0.00 0.00 0.00 62 1014.9
20260830222003 22 17 0.0 1.6 0.00 0.00 0.00 62 1014.8
20260830221503 22 22 0.0 1.6 0.00 0.00 0.00 62 1014.8
20260830221024 22 22 0.0 1.6 0.00 0.00 0.00 62 1014.9
20260830220524 22 0 0.0 0.0 0.00 0.00 0.00 61 1014.8
20260830220004 22 0 0.0 0.0 0.00 0.00 0.00 61 1014.9
20260830215503 22 0 0.0 0.0 0.00 0.00 0.00 61 1014.8
20260830215003 22 0 0.0 0.0 0.00 0.00 0.00 60 1014.6
20260830214503 23 0 0.0 0.0 0.00 0.00 0.00 60 1014.6
20260830214024 23 0 0.0 0.0 0.00 0.00 0.00 60 1014.7
20260830213503 23 0 0.0 0.0 0.00 0.00 0.00 60 1014.6
20260830213003 23 0 0.0 0.0 0.00 0.00 0.00 59 1014.6
20260830212003 23 56 0.0 1.6 0.00 0.00 0.00 59 1014.5
20260830211503 23 72 0.0 1.6 0.00 0.00 0.00 58 1014.5
20260830211003 23 135 0.0 1.6 0.00 0.00 0.00 57 1014.6
20260830210524 23 0 0.0 0.0 0.00 0.00 0.00 57 1014.5
20260830210024 23 0 0.0 0.0 0.00 0.00 0.00 57 1014.5
20260830205524 23 0 0.0 0.0 0.00 0.00 0.00 56 1014.4
20260830205003 23 0 0.0 0.0 0.00 0.00 0.00 57 1014.4
20260830204503 23 0 0.0 0.0 0.00 0.00 0.00 57 1014.5
20260830204003 23 0 0.0 0.0 0.00 0.00 0.00 57 1014.4
20260830203503 23 0 0.0 0.0 0.00 0.00 0.00 57 1014.5
20260830203003 23 0 0.0 0.0 0.00 0.00 0.00 57 1014.4
20260830202503 23 0 0.0 0.0 0.00 0.00 0.00 57 1014.4
20260830202003 23 0 0.0 0.0 0.00 0.00 0.00 56 1014.4
20260830201503 24 0 0.0 0.0 0.00 0.00 0.00 56 1014.6
20260830201003 24 0 0.0 0.0 0.00 0.00 0.00 56 1014.4
20260830200503 24 0 0.0 0.0 0.00 0.00 0.00 55 1014.4
20260830200003 24 0 0.0 0.0 0.00 0.00 0.00 55 1014.5
20260830195503 24 0 0.0 0.0 0.00 0.00 0.00 54 1014.3
20260830195003 24 0 0.0 0.0 0.00 0.00 0.00 53 1014.3
20260830194503 24 0 0.0 0.0 0.00 0.00 0.00 53 1014.3
20260830194003 25 0 0.0 0.0 0.00 0.00 0.00 53 1014.4
20260830193503 25 0 0.0 0.0 0.00 0.00 0.00 53 1014.3
20260830193003 25 0 0.0 0.0 0.00 0.00 0.00 53 1014.4
20260830192503 25 360 0.0 1.6 0.00 0.00 0.00 53 1014.4
20260830192003 25 360 0.0 1.6 0.00 0.00 0.00 53 1014.3
20260830191503 25 0 0.0 0.0 0.00 0.00 0.00 53 1014.4
20260830191003 25 0 0.0 0.0 0.00 0.00 0.00 52 1014.4
20260830190503 25 0 0.0 0.0 0.00 0.00 0.00 52 1014.3
20260830190003 25 0 0.0 0.0 0.00 0.00 0.00 52 1014.2
20260830185503 25 0 0.0 0.0 0.00 0.00 0.00 52 1014.2
20260830185003 25 0 0.0 0.0 0.00 0.00 0.00 52 1014.0
20260830184524 25 0 0.0 0.0 0.00 0.00 0.00 52 1013.9
20260830184003 25 0 0.0 0.0 0.00 0.00 0.00 52 1014.0
20260830183503 25 0 0.0 0.0 0.00 0.00 0.00 52 1014.0
20260830183024 25 0 0.0 0.0 0.00 0.00 0.00 52 1014.0
20260830182503 25 0 0.0 0.0 0.00 0.00 0.00 51 1013.7
20260830182003 25 0 0.0 0.0 0.00 0.00 0.00 51 1014.0
20260830181503 25 0 0.0 0.0 0.00 0.00 0.00 51 1013.8
20260830181024 26 0 0.0 0.0 0.00 0.00 0.00 51 1013.9
20260830180503 26 0 0.0 0.0 0.00 0.00 0.00 51 1013.8
20260830180003 26 0 0.0 0.0 0.00 0.00 0.00 51 1013.8
20260830175503 26 0 0.0 0.0 0.00 0.00 0.00 50 1013.7
20260830175003 26 0 0.0 0.0 0.00 0.00 0.00 50 1013.7
20260830174503 27 0 0.0 0.0 0.00 0.00 0.00 50 1013.7
20260830174003 27 0 0.0 0.0 0.00 0.00 0.00 49 1013.6
20260830173503 27 0 0.0 0.0 0.00 0.00 0.00 43 1013.6
20260830173003 28 0 0.0 0.0 0.00 0.00 0.00 42 1013.6
20260830172524 28 0 0.0 0.0 0.00 0.00 0.00 42 1013.5
20260830172024 28 0 0.0 0.0 0.00 0.00 0.00 41 1013.6
20260830171503 29 0 0.0 0.0 0.00 0.00 0.00 41 1013.6
20260830171003 29 0 0.0 0.0 0.00 0.00 0.00 41 1013.6
20260830170503 29 0 0.0 0.0 0.00 0.00 0.00 41 1013.6
20260830170003 29 0 0.0 0.0 0.00 0.00 0.00 41 1013.5
20260830165524 29 0 0.0 0.0 0.00 0.00 0.00 41 1013.7
20260830165003 29 0 0.0 0.0 0.00 0.00 0.00 40 1013.6
20260830164503 30 0 0.0 0.0 0.00 0.00 0.00 40 1013.5
20260830164003 30 0 0.0 0.0 0.00 0.00 0.00 40 1013.7
20260830163503 29 315 0.0 1.6 0.00 0.00 0.00 40 1013.7
20260830163003 30 315 0.0 1.6 0.00 0.00 0.00 40 1013.7
20260830162503 30 0 0.0 0.0 0.00 0.00 0.00 40 1013.7
20260830162003 30 270 0.0 1.6 0.00 0.00 0.00 40 1013.6
20260830161503 30 270 0.0 1.6 0.00 0.00 0.00 40 1013.7
20260830161004 30 270 0.0 1.6 0.00 0.00 0.00 40 1013.7
20260830160503 30 202 0.0 6.4 0.00 0.00 0.00 40 1013.5
20260830160003 30 214 1.6 8.0 0.00 0.00 0.00 40 1013.6
20260830155524 30 217 1.6 8.0 0.00 0.00 0.00 40 1013.6
20260830155003 30 247 0.0 1.6 0.00 0.00 0.00 40 1013.7
20260830154503 30 223 1.6 6.4 0.00 0.00 0.00 40 1013.7
20260830154003 30 265 3.2 6.4 0.00 0.00 0.00 40 1013.8
20260830153503 30 303 1.6 6.4 0.00 0.00 0.00 40 1013.7
20260830153003 30 276 0.0 4.8 0.00 0.00 0.00 40 1013.9
20260830152503 30 294 0.0 1.6 0.00 0.00 0.00 40 1013.8
20260830152003 30 315 0.0 1.6 0.00 0.00 0.00 40 1013.7
20260830151503 30 282 1.6 4.8 0.00 0.00 0.00 40 1014.0
20260830151003 30 294 1.6 4.8 0.00 0.00 0.00 40 1013.9
20260830150524 30 315 1.6 6.4 0.00 0.00 0.00 40 1014.0
20260830150003 30 315 1.6 8.0 0.00 0.00 0.00 40 1014.1
20260830145503 30 309 0.0 8.0 0.00 0.00 0.00 40 1014.0
20260830145003 30 219 0.0 1.6 0.00 0.00 0.00 40 1013.8
20260830144503 30 245 1.6 6.4 0.00 0.00 0.00 40 1014.0
20260830144003 30 276 3.2 6.4 0.00 0.00 0.00 40 1014.0
20260830143503 30 279 1.6 6.4 0.00 0.00 0.00 40 1013.9
20260830143024 30 257 3.2 12.9 0.00 0.00 0.00 40 1014.0
20260830142503 30 272 3.2 12.9 0.00 0.00 0.00 40 1014.0
20260830142003 30 321 1.6 6.4 0.00 0.00 0.00 40 1014.1
20260830141524 30 321 3.2 6.4 0.00 0.00 0.00 40 1014.1
20260830141003 29 322 1.6 6.4 0.00 0.00 0.00 40 1014.1
20260830140503 29 315 0.0 1.6 0.00 0.00 0.00 40 1014.2
20260830140003 29 186 0.0 6.4 0.00 0.00 0.00 40 1014.3
20260830135503 29 185 1.6 6.4 0.00 0.00 0.00 40 1014.3
20260830135003 29 231 0.0 6.4 0.00 0.00 0.00 41 1014.3
20260830134503 29 286 1.6 6.4 0.00 0.00 0.00 41 1014.2
20260830134003 29 270 1.6 8.0 0.00 0.00 0.00 41 1014.5
20260830133503 29 238 3.2 8.0 0.00 0.00 0.00 41 1014.4
20260830133003 29 207 3.2 8.0 0.00 0.00 0.00 41 1014.5
20260830132503 29 207 1.6 8.0 0.00 0.00 0.00 42 1014.5
20260830132024 29 246 1.6 6.4 0.00 0.00 0.00 42 1014.5
20260830131503 28 294 3.2 8.0 0.00 0.00 0.00 42 1014.4
20260830131003 28 315 4.8 8.0 0.00 0.00 0.00 42 1014.6
20260830130503 28 302 4.8 11.3 0.00 0.00 0.00 43 1014.8
20260830130003 28 283 3.2 11.3 0.00 0.00 0.00 43 1014.6
20260830125524 29 265 1.6 11.3 0.00 0.00 0.00 43 1014.9
20260830125024 28 255 1.6 6.4 0.00 0.00 0.00 43 1014.9
20260830124503 28 272 3.2 6.4 0.00 0.00 0.00 43 1014.9
20260830124003 28 304 1.6 4.8 0.00 0.00 0.00 44 1014.9
20260830123503 28 284 1.6 6.4 0.00 0.00 0.00 43 1014.8
20260830123003 28 241 1.6 6.4 0.00 0.00 0.00 44 1014.9
20260830122503 28 218 1.6 6.4 0.00 0.00 0.00 45 1014.9
20260830122003 28 265 1.6 6.4 0.00 0.00 0.00 45 1014.9
20260830121503 28 301 3.2 8.0 0.00 0.00 0.00 47 1015.0
20260830121003 28 297 1.6 8.0 0.00 0.00 0.00 46 1014.8
20260830120503 28 315 0.0 1.6 0.00 0.00 0.00 47 1014.9
20260830120003 28 315 0.0 3.2 0.00 0.00 0.00 47 1014.9
20260830115503 28 282 1.6 11.3 0.00 0.00 0.00 47 1014.9
20260830115003 28 269 3.2 11.3 0.00 0.00 0.00 47 1014.9
20260830114505 28 242 3.2 6.4 0.00 0.00 0.00 48 1014.9
20260830114005 28 245 3.2 6.4 0.00 0.00 0.00 48 1014.9
20260830113505 28 269 1.6 6.4 0.00 0.00 0.00 49 1015.0
20260830113004 28 268 1.6 6.4 0.00 0.00 0.00 49 1015.1
20260830112504 27 206 1.6 3.2 0.00 0.00 0.00 49 1014.9
20260830112025 27 219 1.6 1.6 0.00 0.00 0.00 49 1015.3
20260830111504 27 258 1.6 1.6 0.00 0.00 0.00 49 1015.2
20260830111004 27 295 1.6 6.4 0.00 0.00 0.00 49 1015.3
20260830110504 27 301 1.6 6.4 0.00 0.00 0.00 48 1015.3
20260830110005 27 236 0.0 3.2 0.00 0.00 0.00 50 1015.5
20260830105505 27 243 0.0 3.2 0.00 0.00 0.00 50 1015.2
20260830105004 27 247 0.0 3.2 0.00 0.00 0.00 50 1015.3
20260830104505 27 242 1.6 4.8 0.00 0.00 0.00 53 1015.3
20260830104004 27 240 3.2 4.8 0.00 0.00 0.00 53 1015.5
20260830103526 27 262 3.2 4.8 0.00 0.00 0.00 53 1015.8
20260830103005 27 296 1.6 4.8 0.00 0.00 0.00 53 1015.6
20260830102505 26 295 1.6 6.4 0.00 0.00 0.00 53 1015.8
20260830102004 26 284 1.6 6.4 0.00 0.00 0.00 53 1015.7
20260830101505 26 232 1.6 6.4 0.00 0.00 0.00 54 1015.6
20260830101025 26 192 0.0 3.2 0.00 0.00 0.00 53 1015.9
20260830100504 26 135 0.0 1.6 0.00 0.00 0.00 55 1015.8
20260830100005 26 188 0.0 1.6 0.00 0.00 0.00 55 1015.9
20260830095505 26 239 0.0 1.6 0.00 0.00 0.00 54 1015.9
20260830095005 26 289 1.6 6.4 0.00 0.00 0.00 56 1015.8
20260830094526 26 238 3.2 6.4 0.00 0.00 0.00 56 1015.9
20260830094004 26 235 3.2 6.4 0.00 0.00 0.00 56 1015.9
20260830093505 26 220 1.6 4.8 0.00 0.00 0.00 57 1015.9
20260830093026 26 189 1.6 4.8 0.00 0.00 0.00 57 1015.9
20260830092526 26 135 0.0 1.6 0.00 0.00 0.00 57 1016.0
20260830092004 26 0 0.0 0.0 0.00 0.00 0.00 57 1016.2
20260830091504 25 135 0.0 1.6 0.00 0.00 0.00 57 1016.0
20260830091005 25 135 0.0 1.6 0.00 0.00 0.00 57 1016.0
20260830090505 25 202 0.0 1.6 0.00 0.00 0.00 58 1016.2
20260830090005 25 126 1.6 4.8 0.00 0.00 0.00 58 1015.9
20260830085504 25 126 1.6 4.8 0.00 0.00 0.00 57 1016.3
20260830085005 25 125 1.6 4.8 0.00 0.00 0.00 58 1016.0
20260830084505 25 105 0.0 1.6 0.00 0.00 0.00 59 1016.2
20260830084005 25 114 0.0 1.6 0.00 0.00 0.00 59 1015.9
20260830083505 25 142 0.0 1.6 0.00 0.00 0.00 60 1016.0
20260830083004 25 209 1.6 6.4 0.00 0.00 0.00 60 1016.0
20260830082504 24 208 1.6 6.4 0.00 0.00 0.00 60 1016.2
20260830082005 24 144 1.6 3.2 0.00 0.00 0.00 60 1016.0
20260830081504 24 121 1.6 3.2 0.00 0.00 0.00 60 1015.9
20260830081004 24 127 1.6 3.2 0.00 0.00 0.00 60 1015.8
20260830080505 24 132 3.2 4.8 0.00 0.00 0.00 59 1015.8
20260830080005 24 127 1.6 4.8 0.00 0.00 0.00 59 1015.9
20260830075505 24 101 0.0 1.6 0.00 0.00 0.00 60 1015.8
20260830075004 24 93 0.0 3.2 0.00 0.00 0.00 60 1015.9
20260830074504 23 84 0.0 3.2 0.00 0.00 0.00 60 1015.8
20260830074005 23 22 0.0 1.6 0.00 0.00 0.00 60 1015.8
20260830073505 23 22 0.0 1.6 0.00 0.00 0.00 60 1015.7
20260830073005 23 26 0.0 1.6 0.00 0.00 0.00 61 1015.7
20260830072525 23 22 0.0 1.6 0.00 0.00 0.00 61 1015.7
20260830072004 23 17 0.0 1.6 0.00 0.00 0.00 61 1015.7
20260830071525 23 9 0.0 4.8 0.00 0.00 0.00 62 1015.6
20260830071025 23 12 1.6 4.8 0.00 0.00 0.00 62 1015.5
20260830070504 22 22 0.0 1.6 0.00 0.00 0.00 63 1015.5
20260830070005 22 22 0.0 1.6 0.00 0.00 0.00 63 1015.6
20260830065505 22 13 0.0 1.6 0.00 0.00 0.00 63 1015.6
20260830065025 22 18 0.0 1.6 0.00 0.00 0.00 67 1015.5
20260830064505 22 22 0.0 1.6 0.00 0.00 0.00 67 1015.6
20260830064004 22 0 0.0 0.0 0.00 0.00 0.00 68 1015.7
20260830063504 21 22 0.0 1.6 0.00 0.00 0.00 68 1015.8
20260830063004 21 22 0.0 1.6 0.00 0.00 0.00 69 1015.5
20260830062504 21 22 0.0 1.6 0.00 0.00 0.00 70 1015.6
20260830062025 21 22 0.0 1.6 0.00 0.00 0.00 70 1015.6
20260830061525 21 22 0.0 1.6 0.00 0.00 0.00 70 1015.5
20260830061004 20 0 0.0 0.0 0.00 0.00 0.00 70 1015.6
20260830060505 20 360 0.0 1.6 0.00 0.00 0.00 70 1015.3
20260830060005 20 360 0.0 1.6 0.00 0.00 0.00 70 1015.3
20260830055504 20 33 0.0 1.6 0.00 0.00 0.00 70 1015.2
20260830055004 20 67 0.0 1.6 0.00 0.00 0.00 70 1015.3
20260830054505 20 0 0.0 0.0 0.00 0.00 0.00 70 1015.2
20260830054004 20 0 0.0 0.0 0.00 0.00 0.00 70 1015.1
20260830053504 20 0 0.0 0.0 0.00 0.00 0.00 70 1014.9
20260830053004 20 0 0.0 0.0 0.00 0.00 0.00 70 1015.1
20260830052504 20 0 0.0 0.0 0.00 0.00 0.00 70 1014.9
20260830052025 20 0 0.0 0.0 0.00 0.00 0.00 70 1015.0
20260830051504 19 0 0.0 0.0 0.00 0.00 0.00 70 1015.0
20260830051004 19 0 0.0 0.0 0.00 0.00 0.00 70 1014.8
20260830050525 19 0 0.0 0.0 0.00 0.00 0.00 70 1014.8
20260830050004 18 0 0.0 0.0 0.00 0.00 0.00 70 1014.7
20260830045505 18 0 0.0 0.0 0.00 0.00 0.00 70 1014.7
20260830045004 19 360 0.0 1.6 0.00 0.00 0.00 70 1014.7
20260830044504 19 23 0.0 3.2 0.00 0.00 0.00 70 1014.7
20260830044025 19 31 1.6 3.2 0.00 0.00 0.00 70 1014.6
20260830043526 19 28 1.6 4.8 0.00 0.00 0.00 70 1014.6
20260830043025 19 33 1.6 4.8 0.00 0.00 0.00 70 1014.5
20260830042505 18 53 1.6 3.2 0.00 0.00 0.00 70 1014.5
20260830042004 19 46 1.6 4.8 0.00 0.00 0.00 70 1014.4
20260830041546 19 41 1.6 4.8 0.00 0.00 0.00 70 1014.4
20260830041005 19 50 0.0 3.2 0.00 0.00 0.00 69 1014.4
20260830040504 19 0 0.0 0.0 0.00 0.00 0.00 68 1014.3
20260830040004 19 22 0.0 1.6 0.00 0.00 0.00 68 1014.2
20260830035525 19 52 0.0 3.2 0.00 0.00 0.00 68 1014.4
20260830035004 19 50 1.6 3.2 0.00 0.00 0.00 68 1014.3
20260830034525 19 29 0.0 1.6 0.00 0.00 0.00 67 1014.3
20260830034004 19 47 1.6 4.8 0.00 0.00 0.00 67 1014.2
20260830033504 20 44 1.6 4.8 0.00 0.00 0.00 67 1014.2
20260830033005 20 36 0.0 4.8 0.00 0.00 0.00 67 1014.3
20260830032505 20 22 0.0 1.6 0.00 0.00 0.00 67 1014.3
20260830032025 20 22 0.0 1.6 0.00 0.00 0.00 68 1014.2
20260830031525 20 11 0.0 1.6 0.00 0.00 0.00 68 1014.3
20260830031004 20 34 1.6 6.4 0.00 0.00 0.00 68 1014.2
20260830030505 19 34 1.6 6.4 0.00 0.00 0.00 69 1014.1
20260830030005 19 11 0.0 3.2 0.00 0.00 0.00 69 1014.2
20260830025504 19 15 0.0 3.2 0.00 0.00 0.00 69 1014.2
20260830025004 19 13 0.0 3.2 0.00 0.00 0.00 69 1014.2
20260830024504 19 10 0.0 3.2 0.00 0.00 0.00 69 1014.1
20260830024005 19 10 0.0 1.6 0.00 0.00 0.00 68 1014.2
20260830023505 19 0 0.0 0.0 0.00 0.00 0.00 67 1014.3
20260830023005 20 17 0.0 3.2 0.00 0.00 0.00 67 1014.2
20260830022504 19 17 0.0 3.2 0.00 0.00 0.00 67 1014.1
20260830022004 19 22 0.0 1.6 0.00 0.00 0.00 67 1014.2
20260830021504 19 22 0.0 1.6 0.00 0.00 0.00 66 1014.3
20260830021004 19 22 0.0 1.6 0.00 0.00 0.00 66 1014.2
20260830020526 19 0 0.0 0.0 0.00 0.00 0.00 65 1014.1
20260830020005 19 0 0.0 0.0 0.00 0.00 0.00 65 1014.1
20260830015504 19 0 0.0 0.0 0.00 0.00 0.00 65 1014.1
20260830015004 20 0 0.0 0.0 0.00 0.00 0.00 65 1014.4
20260830014525 20 0 0.0 0.0 0.00 0.00 0.00 65 1014.3
20260830014004 20 360 0.0 1.6 0.00 0.00 0.00 65 1014.4
20260830013525 20 5 0.0 1.6 0.00 0.00 0.00 65 1014.3
20260830013004 20 11 0.0 1.6 0.00 0.00 0.00 65 1014.2
20260830012504 20 0 0.0 0.0 0.00 0.00 0.00 65 1014.4
20260830012004 20 0 0.0 0.0 0.00 0.00 0.00 65 1014.2
20260830011526 20 0 0.0 0.0 0.00 0.00 0.00 65 1014.3
20260830011025 20 0 0.0 0.0 0.00 0.00 0.00 65 1014.1
20260830010525 20 11 0.0 1.6 0.00 0.00 0.00 65 1014.2
20260830010004 20 17 0.0 1.6 0.00 0.00 0.00 64 1014.2